Location: Horace (historical)
(40.7345°N, 82.0771°W)
Time: 13:42:36
(UTC+00:00)

Daily predictions for brighter satellites

Satellite Brightness Start Highest point End
(mag) Time Altitude Azimuth Time Altitude Azimuth Time Altitude Azimuth
Alouette 2 Rocket 3.2 12:01:43 10° NNW 12:05:27 90° ENE 12:09:03 10° S
Cosmos 2297 Rocket 4.1 12:01:22 10° N 12:06:00 25° NE 12:10:36 10° ESE
USA 267 3.6 22:22:05 10° NE 22:28:32 64° NW 22:34:57 10° WSW
Cosmos 1340 Rocket 2.8 22:30:21 10° N 22:34:25 68° ENE 22:38:28 10° SSE
Cosmos 1606 4.2 22:31:06 10° SSW 22:34:38 38° WNW 22:38:12 10° N
CZ-2D R/B 4.3 22:33:04 10° SE 22:36:10 24° ENE 22:39:17 10° NNE
NOAA 12 4.2 22:33:22 10° SSE 22:38:42 87° ENE 22:44:03 10° NNW
Cosmos 2026 Rocket 4.3 22:33:45 10° N 22:39:31 41° ENE 22:45:10 10° SE
SJ 16-02 3.7 22:36:43 10° NW 22:40:30 29° W 22:44:17 10° SSW
COSMOS 2406 3.3 22:36:13 10° S 22:41:53 62° ESE 22:47:32 10° NNE
USA 229 DEB 4.0 22:36:13 10° NNW 22:43:33 63° NE 22:51:18 10° SE
USA 229 4.0 22:36:19 10° NNW 22:43:39 62° NE 22:51:23 10° SE
COSMOS 2455 3.1 22:41:07 10° S 22:46:54 51° ESE 22:52:43 10° NE
ARGOS 4.2 22:43:04 10° ESE 22:47:13 23° ENE 22:51:23 10° NNE
Cosmos 1833 Rocket 2.7 22:41:40 10° SSW 22:47:16 89° ESE 22:52:56 10° NNE
CZ-4B R/B 3.5 22:45:26 10° S 22:49:30 62° WSW 22:53:24 10° NNW
ATLAS CENTAUR R/B 3.5 22:38:02 10° SW 22:50:06 74° NW 22:54:49 10° NE
Cosmos 1500 4.0 22:46:50 10° NNE 22:50:07 28° ENE 22:53:21 10° SE
Cosmos 1500 Rocket 3.6 22:49:23 10° N 22:53:50 86° W 22:58:13 10° S
Cosmos 1933 3.3 22:53:56 10° S 22:57:58 87° ESE 23:02:02 10° N
PAYLOAD B 4.4 22:53:42 10° SE 22:59:07 52° ENE 23:04:33 10° N
USA 234 3.2 22:53:49 10° ESE 23:00:18 69° NE 23:06:47 10° NW
SMAP 3.1 22:55:55 10° SSE 23:00:34 87° WSW 23:05:15 10° NNW
Cosmos 540 Rocket 3.4 22:56:17 10° SSW 23:01:22 81° ESE 23:06:30 10° NNE
PSLV R/B 3.7 22:58:36 10° SSE 23:02:12 55° ENE 23:05:50 10° N
CZ-4B R/B 3.5 23:00:07 10° SE 23:05:09 40° ENE 23:10:07 10° N
Sich 1 3.0 23:01:11 10° N 23:05:25 55° E 23:09:39 10° SSE
Cosmos 1805 Rocket 3.4 23:01:07 10° N 23:05:28 73° E 23:09:47 10° SSE
Cosmos 1809 Rocket 4.4 23:00:11 10° N 23:06:17 74° E 23:12:21 10° SSE
Cosmos 1814 Rocket 4.5 23:01:36 10° S 23:06:28 40° ESE 23:10:55 12° NE
NOSS 3-1 (A) 4.2 22:59:28 10° NW 23:07:14 89° ENE 23:16:11 10° SSE
GPS 2-04 Rocket1 3.8 23:05:48 10° WSW 23:09:41 40° S 23:12:58 13° ESE
CZ-2C R/B 2.9 23:06:01 10° NNE 23:10:58 44° E 23:15:53 10° S
Cosmos 2360 4.2 23:05:41 10° NNW 23:11:27 78° ENE 23:17:10 10° SSE
Meteor 1-26 Rocket 4.3 23:10:38 10° S 23:16:33 84° E 23:22:37 10° N
deb Chang Zheng 4 3.9 23:13:20 10° SE 23:17:22 42° ENE 23:21:27 10° N
Cosmos 1898 Rocket 3.8 23:12:41 10° NNW 23:17:55 73° WSW 23:23:05 10° S
Cosmos 2084 4.0 23:15:04 10° NW 23:19:23 65° WSW 23:23:51 10° SSE
Cosmos 1666 3.2 23:16:21 10° N 23:19:45 34° ENE 23:23:09 10° SE
MOS 1-B 4.3 23:16:28 10° SSE 23:22:13 77° ENE 23:28:00 10° NNW
CZ-4C R/B 3.2 23:21:22 10° NNW 23:28:22 47° NE 23:36:22 10° ESE
Cosmos 2208 Rocket 4.3 23:27:11 10° S 23:32:19 48° ESE 23:35:28 23° NE
Cosmos 1812 2.6 23:29:43 10° S 23:33:34 83° E 23:36:51 14° N
H-2A R/B 2.1 23:29:47 10° SSE 23:35:00 83° WSW 23:40:07 10° NNW
SJ-11-01 4.3 23:31:05 10° SSE 23:35:43 59° ENE 23:40:24 10° N
COSMO-SKYMED 1 2.4 23:34:00 11° NNE 23:38:17 83° ESE 23:42:37 10° SSW
USA 276 3.4 23:36:43 10° WNW 23:39:40 38° SW 23:41:29 19° SSE
Cosmos 921 Rocket 3.4 23:43:59 10° S 23:47:24 40° ESE 23:47:24 40° ESE
Cosmos 1633 Rocket 2.9 23:44:50 10° N 23:49:13 76° E 23:53:36 10° SSE
Meteor 1-14 Rocket 4.2 23:43:35 10° N 23:49:27 87° E 23:55:24 10° S
Cosmos 2322 Rocket 3.9 23:45:33 10° N 23:47:27 16° NNE 23:47:27 16° NNE
Cosmos 1697 Rocket 3.9 23:47:09 10° NW 23:52:27 44° WSW 23:57:43 10° S
Cosmos 841 Rocket 4.5 23:47:41 10° SW 23:52:37 45° WNW 23:57:34 10° N
